Wetbulb
61.47 61.13 61.07 62.55 63.94 63.56 62.84 61.55 59.31 53.18 52.62 56.43 57.67 58.75 58.52 58.03 56.82 57.94 59.00 52.69 49.55 49.28 49.90 51.39 53.25 54.83 55.48 56.40 56.84 57.22 58.26 57.29 55.83 53.69 52.21 50.46 49.23 47.68
61.64 61.13 60.82 61.70 62.13 62.64 62.95 61.77 61.09 57.78 53.64 57.07 58.11 57.30 57.73 56.62 56.52 56.52 56.08 52.73 48.68 48.23 47.83 48.87 50.30 52.39 53.44 53.28 53.56 53.68 53.59 52.64 51.50 50.23 48.71 47.23 46.22 45.61
61.40 60.95 60.29 61.07 61.04 61.09 60.86 60.61 59.51 58.12 54.93 54.29 51.81 54.42 50.30 53.69 51.00 54.60 53.00 53.80 54.93 47.01 46.74 47.17 47.73 49.41 49.70 49.39 49.37 49.52 49.32 49.00 48.28 46.82 45.87 45.09 44.25 43.39
60.26 60.57 60.06 60.83 60.50 60.69 60.61 59.69 58.49 58.34 57.22 55.27 48.82 46.77 47.37 48.60 47.73 46.54 44.91 46.12 50.01 46.99 46.08 46.75 46.97 46.63 46.12 45.61 45.31 45.30 44.91 44.80 44.32 43.64 43.00 42.23 41.77 41.08
60.89 60.35 60.87 60.66 59.87 60.09 59.64 59.18 58.47 57.71 57.39 56.08 47.06 44.61 41.10 43.15 39.90 40.60 41.98 42.16 43.36 45.22 44.16 45.01 46.18 44.94 44.37 43.74 43.25 42.27 41.29 40.28 39.65 39.25 38.68 38.17 37.96 37.70
61.29 61.02 60.69 59.97 60.25 60.02 59.57 58.81 58.94 57.55 57.02 55.58 48.18 43.74 41.86 40.95 41.94 38.78 36.49 38.60 37.86 40.16 41.24 41.35 42.30 43.00 42.16 40.89 39.72 38.96 37.84 36.98 36.13 35.19 34.34 33.85 34.17 34.98
58.68 58.76 58.88 56.14 51.43 53.24 56.94 57.00 56.62 57.04 56.08 54.62 51.81 45.76 39.21 38.14 40.39 39.52 37.10 34.35 33.32 36.61 36.58 37.21 37.93 37.72 37.87 37.56 37.63 37.13 35.91 35.00 33.77 32.89 32.36 31.91 32.15 33.01
57.44 56.22 56.50 50.10 50.02 43.33 42.24 42.24 49.09 55.22 54.34 54.42 53.08 46.43 44.58 45.46 42.02 39.14 34.30 34.59 32.60 34.34 34.66 32.13 35.27 33.43 34.13 34.87 35.41 35.08 34.48 33.72 32.86 32.35 31.91 31.22 31.21 31.48
55.49 53.77 52.66 50.74 48.49 51.62 44.82 40.06 39.32 38.76 37.71 49.34 52.39 48.50 47.10 44.67 41.82 38.96 36.89 37.84 35.05 33.59 34.55 30.21 32.47 30.81 32.70 33.76 34.61 34.13 33.40 32.61 31.78 31.52 31.15 30.66 30.46 30.67
53.42 52.47 51.47 49.09 46.52 44.18 44.23 41.33 39.34 37.89 36.78 38.86 42.87 50.91 50.86 46.14 42.89 41.85 39.44 33.72 32.37 33.38 33.61 27.93 30.98 29.40 31.51 32.14 33.68 32.84 32.04 31.59 31.01 30.88 30.45 30.20 30.32 30.50
44.80 42.86 44.11 44.23 38.40 39.40 40.57 37.71 36.07 35.17 36.18 37.25 39.06 43.53 41.97 41.54 42.47 39.90 34.85 36.88 31.82 31.29 30.92 29.63 28.86 27.98 29.70 30.54 31.85 32.76 31.91 31.46 31.23 31.31 31.14 30.61 30.63 30.89
36.06 34.99 34.59 37.89 35.68 36.13 40.73 38.98 35.53 33.54 34.44 34.81 33.90 35.24 37.85 36.93 36.10 40.34 38.74 38.53 29.88 28.29 30.66 28.27 27.46 26.89 24.26 29.20 30.92 31.15 31.40 31.85 31.65 31.38 30.97 30.92 31.36 32.60
34.59 33.87 33.88 34.33 35.58 36.26 35.93 36.98 34.03 33.51 32.54 33.14 33.25 33.17 32.99 33.08 33.04 33.46 34.44 37.87 34.43 31.38 31.44 30.58 27.29 26.80 25.93 25.15 28.19 29.65 30.03 30.45 31.25 31.83 31.06 31.32 31.83 32.24
32.21 32.31 32.77 33.38 33.19 32.99 32.95 32.22 32.03 32.78 33.05 30.94 29.37 29.16 28.69 27.49 28.59 30.77 31.62 31.80 32.24 32.06 31.73 31.13 28.08 27.21 25.07 24.01 23.72 27.87 29.26 30.25 30.67 30.31 31.46 30.32 29.31 29.01
29.81 29.67 29.50 29.39 29.60 29.12 29.64 29.66 30.73 31.85 30.01 26.77 24.74 24.48 25.59 26.53 27.75 27.61 28.25 28.91 28.99 29.70 30.48 30.79 29.13 27.86 27.46 25.07 24.57 26.24 26.01 27.42 28.73 28.44 29.42 29.77 29.95 30.44
27.18 27.03 27.16 26.74 26.34 26.22 26.44 26.10 26.70 26.80 25.79 24.19 23.22 24.33 25.67 25.45 25.05 26.35 25.35 25.86 24.81 24.56 28.61 30.14 30.24 29.39 26.88 27.71 27.16 25.28 26.04 24.74 26.60 27.56 28.26 28.48 29.59 30.07
27.23 26.20 24.99 24.36 23.60 23.68 23.84 24.33 25.19 25.49 24.75 24.48 23.61 23.26 23.32 23.57 23.50 25.13 25.07 24.57 22.90 22.35 22.82 25.45 27.81 28.52 28.81 28.12 25.41 25.15 24.48 24.81 26.51 26.27 26.43 26.15 28.12 29.32
26.05 23.83 22.56 22.52 22.14 22.27 22.43 22.64 23.47 23.41 23.64 23.96 23.67 23.44 23.05 22.90 23.35 24.79 25.21 24.90 23.42 22.98 22.88 24.11 24.74 24.67 24.10 24.22 26.87 24.06 25.46 25.03 25.53 25.61 26.55 26.45 27.32 30.38
26.68 24.84 22.56 21.95 21.83 21.90 22.23 22.59 22.42 23.93 24.79 24.68 23.79 23.46 23.40 23.95 24.09 23.49 23.70 23.56 22.36 21.71 22.39 24.23 24.38 23.62 20.90 18.51 21.78 25.34 23.10 23.48 24.78 25.14 25.75 25.85 25.15 27.04
25.89 25.45 24.65 24.62 24.42 24.12 24.78 24.71 24.38 24.78 24.60 24.41 24.28 24.20 23.86 22.81 22.06 22.03 22.13 21.84 21.23 21.10 20.93 22.01 22.44 23.77 23.68 21.70 20.06 22.01 24.45 24.60 24.86 24.95 25.19 25.95 26.12 24.76
24.17 23.96 24.93 24.69 23.95 23.45 23.57 23.78 23.35 22.90 23.61 23.82 23.40 23.36 23.54 22.34 21.19 21.43 21.34 20.97 20.95 20.55 18.89 18.62 19.16 21.88 23.07 24.91 20.98 20.42 21.59 21.44 22.56 23.12 23.38 23.06 23.01 24.08
23.14 22.95 23.32 24.06 24.15 24.20 24.80 24.47 23.53 22.32 21.78 21.66 22.21 22.87 23.05 22.46 21.08 20.72 21.62 20.92 20.11 20.15 19.67 21.12 22.65 23.78 23.26 21.72 19.01 18.56 19.95 20.98 21.32 19.86 20.72 20.43 21.94 20.65
21.44 21.71 22.06 22.73 23.85 23.87 23.79 23.24 22.56 22.18 21.79 22.11 22.17 22.16 22.61 21.77 21.53 21.38 21.03 20.47 19.68 19.09 18.98 18.67 19.52 20.41 19.09 18.23 17.91 17.46 15.74 17.46 19.18 19.71 21.60 19.67 19.67 20.28
MSLP
1012.12 1012.61 1013.03 1013.29 1013.56 1013.75 1013.90 1014.13 1014.54 1015.30 1015.83 1016.09 1016.57 1016.76 1017.22 1017.38 1017.73 1018.38 1018.81 1018.99 1019.74 1020.33 1020.76 1021.15 1021.49 1021.83 1022.09 1022.39 1022.77 1023.21 1023.57 1024.08 1024.68 1025.30 1025.96 1026.64 1027.12 1027.37
1011.48 1012.00 1012.46 1012.76 1013.08 1013.37 1013.54 1013.70 1013.94 1014.45 1014.83 1015.19 1015.45 1016.00 1016.20 1016.63 1017.01 1017.43 1017.75 1018.46 1018.94 1019.25 1019.90 1020.38 1020.79 1021.17 1021.70 1022.04 1022.53 1022.98 1023.58 1024.17 1024.80 1025.56 1026.17 1026.80 1027.43 1027.27
1010.75 1011.24 1011.67 1012.08 1012.35 1012.73 1013.13 1013.30 1013.60 1014.03 1014.35 1014.96 1015.30 1015.80 1016.16 1016.28 1016.62 1016.82 1017.01 1017.59 1018.13 1018.64 1019.03 1019.54 1020.10 1020.54 1021.24 1021.77 1022.27 1022.89 1023.53 1024.13 1024.73 1025.48 1026.30 1026.86 1027.54 1027.77
1009.89 1010.58 1010.92 1011.36 1011.75 1012.11 1012.53 1012.74 1012.98 1013.28 1013.61 1014.13 1015.22 1015.77 1015.97 1016.01 1016.67 1016.53 1017.17 1017.37 1017.68 1018.14 1018.57 1018.91 1019.33 1019.79 1020.69 1021.45 1022.16 1022.92 1023.56 1024.21 1024.55 1025.40 1026.14 1026.50 1027.52 1027.84
1009.32 1009.82 1010.22 1010.77 1011.09 1011.47 1011.86 1012.08 1012.33 1012.67 1012.91 1013.29 1014.28 1015.37 1016.05 1016.27 1016.84 1016.94 1017.26 1017.74 1017.80 1017.95 1018.31 1018.79 1019.42 1019.67 1020.52 1021.39 1022.20 1023.00 1023.69 1024.51 1025.20 1026.00 1026.63 1027.03 1027.82 1028.06
1008.83 1009.28 1009.77 1010.18 1010.45 1010.85 1011.31 1011.40 1011.69 1011.94 1012.13 1012.28 1013.21 1014.31 1015.15 1016.00 1016.38 1016.92 1017.39 1018.06 1018.50 1018.62 1018.73 1019.31 1019.93 1020.36 1021.02 1021.80 1022.56 1023.47 1024.15 1024.71 1025.11 1026.19 1026.82 1027.39 1028.20 1028.32
1008.60 1008.96 1009.32 1009.71 1010.17 1010.50 1010.79 1010.95 1011.14 1011.20 1011.38 1011.85 1012.02 1013.23 1014.28 1015.21 1015.31 1016.01 1016.94 1017.52 1018.91 1019.37 1019.19 1020.19 1020.45 1021.13 1022.21 1022.69 1023.32 1023.73 1024.57 1024.90 1025.96 1026.16 1027.14 1027.48 1028.04 1028.45
1008.44 1008.74 1009.14 1009.56 1009.94 1010.18 1010.44 1010.72 1011.04 1011.25 1011.25 1011.15 1011.12 1011.61 1012.32 1012.89 1013.95 1015.00 1016.15 1017.25 1018.91 1019.10 1019.49 1020.60 1021.18 1021.36 1022.22 1023.18 1023.65 1024.25 1024.83 1025.39 1025.98 1026.69 1027.02 1027.27 1027.94 1028.44
1008.42 1008.67 1008.99 1009.38 1009.81 1010.08 1010.27 1010.46 1010.58 1010.81 1011.06 1011.03 1010.53 1010.26 1010.65 1010.97 1012.18 1013.55 1014.35 1014.77 1016.31 1017.53 1019.02 1020.48 1021.84 1022.03 1022.74 1023.51 1023.96 1024.50 1025.05 1025.67 1026.24 1026.87 1027.06 1027.54 1028.08 1028.51
1008.33 1008.55 1008.88 1009.20 1009.65 1010.05 1010.30 1010.46 1010.53 1010.82 1010.87 1010.63 1010.07 1009.09 1008.75 1009.83 1010.33 1010.96 1012.64 1014.43 1015.96 1017.72 1018.40 1020.03 1021.32 1022.27 1023.02 1023.67 1024.32 1024.78 1025.10 1025.85 1026.45 1026.93 1027.17 1027.79 1028.12 1028.43
1008.60 1008.92 1009.11 1009.27 1009.59 1010.04 1010.26 1010.47 1010.50 1010.63 1010.53 1010.14 1008.70 1008.26 1008.24 1008.94 1009.96 1011.51 1013.39 1014.02 1016.24 1017.52 1018.48 1019.21 1020.88 1022.15 1022.93 1023.69 1024.45 1024.91 1025.37 1025.89 1026.44 1026.93 1027.31 1027.73 1028.06 1028.29
1009.26 1009.57 1009.68 1009.54 1009.86 1010.10 1010.15 1010.36 1010.65 1010.92 1010.75 1010.05 1009.32 1009.16 1009.19 1010.15 1011.08 1011.21 1012.17 1012.69 1014.55 1016.89 1017.72 1018.62 1020.35 1021.07 1023.02 1023.86 1024.30 1025.01 1025.47 1026.00 1026.42 1026.86 1027.43 1027.57 1027.65 1027.67
1009.44 1009.94 1010.26 1010.22 1010.17 1010.22 1010.37 1010.52 1010.83 1011.25 1011.36 1010.71 1010.76 1011.04 1011.17 1011.64 1012.04 1012.25 1012.70 1012.80 1013.89 1014.88 1015.66 1016.92 1019.08 1020.19 1021.44 1022.99 1024.16 1024.79 1025.32 1025.98 1026.28 1026.82 1027.21 1027.16 1027.37 1027.47
1010.30 1010.84 1010.94 1011.16 1010.89 1011.11 1010.91 1010.99 1011.37 1011.69 1011.62 1011.40 1011.87 1012.56 1012.97 1012.77 1013.36 1013.35 1013.46 1013.87 1014.39 1014.74 1015.84 1016.76 1017.91 1018.81 1020.50 1022.44 1023.60 1024.72 1025.29 1025.81 1026.31 1026.75 1026.71 1027.08 1027.43 1027.62
1011.57 1011.70 1011.92 1012.14 1012.03 1011.88 1012.07 1012.06 1011.98 1012.42 1012.29 1012.40 1013.27 1013.97 1014.33 1014.28 1014.34 1014.45 1014.71 1014.88 1015.64 1016.45 1017.03 1017.53 1017.78 1019.05 1020.04 1021.37 1022.70 1023.94 1024.90 1025.87 1026.46 1026.54 1026.65 1026.89 1027.10 1027.27
1012.33 1012.48 1012.59 1012.99 1012.94 1012.83 1012.98 1013.32 1013.34 1013.63 1013.23 1013.49 1014.28 1015.01 1015.30 1015.28 1015.48 1015.69 1015.72 1016.31 1016.58 1017.88 1018.55 1018.82 1019.10 1019.66 1020.72 1021.63 1022.50 1023.84 1024.87 1025.44 1026.27 1026.58 1026.49 1026.70 1026.96 1027.00
1012.91 1013.19 1013.07 1013.49 1013.82 1014.07 1014.05 1014.33 1014.63 1014.75 1014.58 1014.96 1015.13 1015.62 1016.03 1016.22 1016.52 1016.76 1016.98 1017.24 1017.99 1019.04 1019.78 1020.37 1020.81 1021.24 1021.86 1022.59 1023.30 1024.29 1025.00 1025.57 1026.18 1026.58 1026.68 1026.55 1026.53 1026.60
1013.36 1013.94 1014.37 1014.62 1014.84 1015.28 1015.41 1015.57 1015.43 1015.71 1015.69 1015.69 1016.21 1016.41 1017.01 1017.22 1017.52 1017.88 1018.18 1018.62 1019.24 1020.31 1020.90 1021.45 1021.75 1022.32 1023.09 1024.25 1024.36 1024.66 1025.17 1025.75 1026.38 1026.60 1026.58 1026.39 1026.18 1026.18
1014.25 1014.92 1015.21 1015.46 1016.12 1016.34 1016.23 1016.51 1016.46 1016.74 1017.03 1016.79 1017.36 1017.36 1017.74 1018.52 1018.60 1018.87 1019.37 1019.93 1020.62 1021.34 1021.95 1022.30 1022.62 1023.03 1023.39 1024.29 1025.80 1025.90 1025.78 1026.22 1026.40 1026.46 1026.59 1026.58 1026.34 1026.13
1015.62 1016.01 1016.22 1016.41 1016.82 1017.25 1017.53 1017.49 1017.43 1017.60 1017.84 1018.17 1018.31 1018.68 1018.89 1019.30 1019.91 1019.97 1020.66 1021.26 1021.71 1022.17 1022.54 1022.94 1023.29 1023.61 1023.74 1024.38 1025.40 1026.81 1026.83 1026.64 1026.63 1026.61 1026.61 1026.59 1026.47 1026.44
1017.28 1017.27 1017.29 1017.65 1017.88 1017.98 1018.42 1018.69 1018.72 1018.81 1018.97 1019.24 1019.70 1020.02 1020.25 1020.45 1020.90 1021.28 1021.73 1022.29 1022.56 1023.00 1023.44 1024.15 1024.85 1024.89 1024.85 1025.09 1025.87 1026.80 1027.39 1027.59 1027.37 1027.26 1027.14 1026.79 1026.31 1026.09
1018.70 1018.66 1018.68 1018.85 1019.15 1018.93 1019.24 1019.51 1020.01 1020.28 1020.41 1020.63 1020.89 1021.07 1021.34 1021.45 1021.73 1022.12 1022.55 1022.96 1023.44 1023.89 1024.35 1024.90 1024.98 1024.97 1025.08 1025.35 1026.32 1026.94 1027.28 1027.59 1027.61 1027.89 1027.79 1027.84 1027.43 1026.80
1020.38 1019.81 1019.56 1020.09 1020.36 1020.48 1020.58 1020.64 1021.09 1021.62 1021.60 1021.68 1022.06 1022.23 1022.22 1022.39 1022.87 1023.21 1023.49 1023.99 1024.37 1024.75 1025.09 1025.39 1025.66 1025.96 1026.20 1026.54 1026.85 1027.40 1027.89 1027.89 1027.74 1027.58 1027.69 1028.05 1027.97 1027.70
Wind_Speed
11 11 8 8 9 10 10 10 10 6 8 8 7 11 10 10 13 12 14 16 18 17 17 16 14 12 12 13 12 11 13 17 18 18 18 16 13 12
8 11 10 7 9 9 10 9 9 9 6 9 10 7 12 9 11 12 11 10 15 18 18 17 15 14 13 11 14 17 19 20 20 19 18 15 13 14
10 11 11 11 8 8 7 8 8 8 10 3 2 7 5 9 6 9 7 8 8 14 17 17 16 16 15 16 18 20 21 21 21 20 17 15 12 11
11 11 11 9 11 9 7 10 8 9 9 12 7 4 5 5 6 8 3 3 6 8 13 16 17 19 21 21 21 20 20 20 21 20 18 16 13 11
10 11 11 11 10 8 8 8 8 7 9 9 5 2 2 3 3 3 4 5 4 9 9 13 17 21 23 23 22 22 21 19 18 17 15 14 11 10
11 12 11 10 12 10 11 11 10 10 11 10 6 4 3 2 2 5 5 3 5 6 11 11 15 19 21 23 23 22 22 21 22 18 15 13 10 10
8 7 6 6 7 6 4 4 5 7 8 9 6 6 4 5 12 6 4 7 3 2 9 8 10 9 10 17 18 21 20 20 17 18 15 14 11 10
8 7 6 8 8 10 9 9 10 9 11 9 9 10 13 11 10 10 9 7 5 2 5 6 4 8 7 6 17 19 18 18 17 15 15 13 12 10
7 5 4 3 5 5 6 5 7 10 10 12 11 12 13 15 14 14 13 11 5 9 9 5 2 6 6 9 17 18 17 15 15 13 12 11 10 8
4 4 4 4 2 3 3 4 3 3 4 6 12 14 16 14 19 17 16 9 10 8 4 5 4 3 6 6 16 16 16 15 14 11 10 8 8 7
3 2 2 4 3 6 4 3 2 2 4 11 12 19 9 17 15 12 9 11 4 5 3 4 6 5 4 6 7 15 15 13 13 10 9 10 7 8
3 3 7 1 5 7 4 4 2 3 5 4 7 12 13 12 8 7 11 14 7 4 6 5 8 5 5 2 6 7 7 13 12 8 8 9 9 6
3 3 3 5 4 5 3 3 3 3 3 6 7 7 8 8 6 7 4 4 4 3 10 6 6 5 4 6 4 5 6 6 4 6 10 9 10 6
5 4 6 11 13 10 8 12 9 5 4 6 8 7 6 7 7 7 10 10 7 6 11 5 6 6 6 5 5 5 6 5 4 4 6 6 6 4
8 14 16 14 14 13 17 14 8 4 5 8 7 7 6 6 6 9 12 16 15 11 8 5 8 11 5 7 7 8 9 5 4 5 5 4 3 3
9 8 9 9 12 10 8 10 7 5 6 8 8 6 5 6 8 7 9 9 11 10 12 11 10 9 8 8 9 10 7 4 6 4 4 3 3 4
7 6 7 7 7 7 7 8 7 6 8 7 8 8 7 8 8 7 8 10 10 9 9 10 13 14 11 11 10 8 8 7 5 4 3 2 3 3
7 7 7 7 8 7 7 7 7 8 7 8 8 8 8 8 9 9 9 10 11 10 9 9 10 11 10 13 12 8 6 6 4 3 2 2 2 2
11 9 8 8 7 6 7 6 8 8 7 9 8 9 9 9 10 9 10 10 10 10 9 7 6 6 8 7 5 15 6 4 3 2 1 2 4 4
10 9 9 9 8 8 7 7 8 8 9 8 9 9 9 9 9 10 9 10 10 9 9 7 6 5 7 5 6 6 11 4 2 2 2 2 4 10
9 10 9 8 8 8 8 8 9 8 8 8 9 8 8 9 10 10 10 11 11 9 9 8 7 8 8 8 8 6 5 10 7 4 3 4 4 3
9 9 9 9 8 9 8 8 9 8 8 7 8 8 8 8 9 9 9 9 9 8 9 7 5 5 5 7 7 6 4 4 4 6 6 8 4 3
8 9 9 9 8 8 8 8 8 7 7 7 7 7 8 9 9 9 9 8 8 8 7 7 7 7 8 7 6 5 5 5 4 4 2 9 7 8
Wind_Direction
194 197 204 212 227 229 226 218 221 211 215 207 196 202 200 194 200 202 220 196 203 207 209 212 211 210 203 193 186 192 158 146 141 141 141 144 142 141
190 192 201 208 215 225 221 224 223 226 236 210 213 197 202 204 201 196 201 200 205 203 207 206 206 194 196 179 159 147 145 143 144 143 143 144 149 142
186 192 202 202 210 217 211 214 216 217 234 197 192 194 196 197 185 199 180 190 208 210 201 200 198 189 172 155 148 145 147 145 144 143 144 146 149 146
186 194 207 207 213 206 207 215 219 223 227 233 187 182 196 196 197 161 138 133 185 199 206 201 179 158 149 145 143 143 142 143 141 143 150 143 152 144
191 199 206 203 208 209 213 220 221 226 226 236 177 155 135 171 111 73 124 96 83 116 141 158 158 143 141 140 140 138 134 130 129 134 134 135 149 147
203 207 206 205 218 220 229 228 234 237 231 221 175 163 157 156 162 158 133 112 107 94 90 109 123 126 129 130 133 136 134 136 136 136 130 133 145 151
193 193 193 189 202 215 214 234 237 239 226 224 198 176 163 159 188 169 146 129 84 125 125 119 126 122 130 127 135 137 138 136 137 136 146 147 150 156
199 199 204 209 227 231 235 248 257 256 248 246 224 203 199 198 172 176 149 148 159 200 133 109 142 123 128 128 137 139 139 140 139 149 155 146 156 166
205 188 200 206 222 244 244 257 258 256 246 260 258 212 201 190 174 174 184 166 140 150 138 109 148 115 123 138 144 142 139 143 147 153 142 149 161 171
193 189 203 224 221 247 264 268 263 271 314 270 235 238 214 185 183 182 172 117 87 141 106 123 131 120 126 133 146 144 142 148 153 148 139 153 169 184
110 69 247 225 191 196 210 221 244 276 291 339 255 246 162 168 161 133 152 151 120 164 156 115 139 118 114 137 150 148 149 157 148 149 168 179 182 192
90 68 31 346 178 181 211 202 179 336 333 353 22 42 82 104 96 174 169 172 130 114 182 110 139 138 129 123 147 152 152 148 155 164 187 191 189 197
118 74 29 46 110 137 139 144 126 122 42 68 65 66 72 67 60 52 62 134 143 100 159 116 150 127 96 131 138 145 143 154 159 178 207 204 187 224
87 65 60 66 69 67 79 88 93 94 92 77 73 59 63 71 50 63 76 69 57 97 136 102 122 135 125 116 136 146 144 130 138 170 182 142 147 169
62 72 66 55 57 60 53 51 58 64 89 80 78 65 59 68 77 79 76 82 73 66 63 80 116 122 112 128 138 147 138 140 166 180 176 190 206 219
67 67 68 65 60 56 47 40 40 42 76 93 88 78 71 70 71 70 87 85 83 73 60 66 88 90 98 113 128 130 121 141 162 172 169 191 227 240
84 54 58 50 50 42 53 57 47 55 73 75 89 89 81 80 71 66 67 78 91 90 81 71 75 80 85 102 109 110 117 119 140 147 191 221 234 252
69 73 63 58 60 55 56 54 63 58 71 79 75 78 77 80 83 77 81 84 91 87 90 94 103 104 92 64 53 107 106 114 122 130 164 260 250 200
75 72 67 64 60 57 68 70 72 67 67 78 76 85 87 81 86 85 84 88 86 89 88 92 87 100 110 100 85 31 107 104 119 119 42 292 304 303
64 70 70 71 69 67 68 78 78 77 75 76 80 78 81 89 85 87 90 95 97 97 91 79 68 83 112 114 117 87 42 90 67 55 16 327 287 278
61 64 67 72 74 79 71 65 69 70 76 80 77 81 89 94 93 93 93 95 101 100 92 77 67 80 101 111 108 119 83 49 29 358 345 317 328 319
62 67 65 63 65 73 76 79 75 67 71 77 85 92 93 91 93 98 100 101 96 97 98 98 86 84 82 96 97 104 79 33 43 45 62 24 338 312
59 62 66 63 64 64 69 76 77 77 80 84 86 90 94 94 91 92 95 94 99 100 102 97 86 79 77 78 83 86 61 37 19 20 79 11 347 332